EJU963 EHAM-LFPG

Flight info

Callsign EJU963
Flight time 0h 49m
Altitude 29000
Route WOODY N872 DENOX DCT SISGA DCT DELOM DCT MOPIL
Aircraft A319/M-SDE3FGHIRWY/LB1

Departure

Time 2026-05-05 19:30
Airport Amsterdam Airport Schiphol (EHAM)

Arrival

Time 2026-05-05 20:19
Airport Charles de Gaulle International Airport (LFPG)
Time Latitude Longitude Altitude Speed Heading
2026-05-05 19:08 52.31005 4.75409 -1 ft 0 kts 148°
2026-05-05 19:19 52.31012 4.75403 -1 ft 3 kts 149°
2026-05-05 19:20 52.31029 4.75386 -1 ft 3 kts 150°
2026-05-05 19:20 52.31045 4.75369 -1 ft 3 kts 128°
2026-05-05 19:20 52.31052 4.75357 -1 ft 2 kts 62°
2026-05-05 19:20 52.31051 4.75353 -1 ft 0 kts 57°
2026-05-05 19:22 52.31055 4.75364 -1 ft 4 kts 58°
2026-05-05 19:23 52.31081 4.75433 -1 ft 11 kts 59°
2026-05-05 19:23 52.31152 4.75490 -1 ft 14 kts 343°
2026-05-05 19:23 52.31260 4.75455 -1 ft 17 kts 359°
2026-05-05 19:23 52.31379 4.75446 -1 ft 15 kts 356°
2026-05-05 19:24 52.31422 4.75342 -1 ft 13 kts 269°
2026-05-05 19:24 52.31415 4.75161 -1 ft 19 kts 266°
2026-05-05 19:24 52.31410 4.75003 -1 ft 23 kts 268°
2026-05-05 19:24 52.31402 4.74712 -1 ft 27 kts 267°
2026-05-05 19:25 52.31393 4.74442 -1 ft 20 kts 267°
2026-05-05 19:25 52.31386 4.74211 -1 ft 20 kts 266°
2026-05-05 19:25 52.31274 4.74129 -1 ft 20 kts 183°
2026-05-05 19:25 52.31135 4.74116 -1 ft 20 kts 183°
2026-05-05 19:26 52.30992 4.74104 -1 ft 21 kts 183°
2026-05-05 19:26 52.30845 4.74090 -1 ft 22 kts 183°
2026-05-05 19:26 52.30694 4.74077 -1 ft 22 kts 182°
2026-05-05 19:26 52.30560 4.74066 -1 ft 16 kts 182°
2026-05-05 19:27 52.30455 4.74058 -1 ft 10 kts 182°
2026-05-05 19:27 52.30388 4.74050 -1 ft 9 kts 185°
2026-05-05 19:27 52.30331 4.74049 -1 ft 9 kts 197°
2026-05-05 19:27 52.30302 4.74012 -1 ft 0 kts 222°
2026-05-05 19:28 52.30296 4.74003 -1 ft 4 kts 221°
2026-05-05 19:28 52.30256 4.73956 -1 ft 10 kts 216°
2026-05-05 19:28 52.30190 4.73853 -2 ft 15 kts 245°
2026-05-05 19:29 52.30241 4.73744 -3 ft 16 kts 358°
2026-05-05 19:29 52.30502 4.73765 -2 ft 76 kts
2026-05-05 19:29 52.31281 4.73840 4 ft 144 kts
2026-05-05 19:29 52.32340 4.73947 582 ft 154 kts
2026-05-05 19:30 52.33387 4.74299 1414 ft 157 kts 18°
2026-05-05 19:30 52.34489 4.74908 1953 ft 178 kts 21°
2026-05-05 19:30 52.35719 4.75628 2485 ft 201 kts 21°
2026-05-05 19:30 52.36982 4.76653 3415 ft 207 kts 43°
2026-05-05 19:31 52.37611 4.78783 4349 ft 220 kts 82°
2026-05-05 19:31 52.37456 4.81326 5317 ft 232 kts 106°
2026-05-05 19:31 52.36495 4.83525 6010 ft 249 kts 140°
2026-05-05 19:31 52.34925 4.84793 6817 ft 264 kts 166°
2026-05-05 19:32 52.33013 4.84990 7421 ft 285 kts 181°
2026-05-05 19:32 52.31014 4.84929 8426 ft 289 kts 181°
2026-05-05 19:32 52.28992 4.84867 9484 ft 292 kts 181°
2026-05-05 19:32 52.26940 4.84812 10331 ft 302 kts 181°
2026-05-05 19:33 52.24753 4.84760 10766 ft 325 kts 181°
2026-05-05 19:33 52.22457 4.84711 11509 ft 334 kts 181°
2026-05-05 19:33 52.20114 4.84661 12392 ft 339 kts 181°
2026-05-05 19:33 52.17743 4.84614 13285 ft 343 kts 181°
2026-05-05 19:34 52.15341 4.84566 14113 ft 347 kts 180°
2026-05-05 19:34 52.12915 4.84519 14915 ft 350 kts 180°
2026-05-05 19:34 52.10467 4.84472 15700 ft 354 kts 180°
2026-05-05 19:35 52.05523 4.84369 17249 ft 361 kts 180°
2026-05-05 19:35 52.03009 4.84085 18007 ft 365 kts 189°
2026-05-05 19:35 52.00547 4.83027 18700 ft 368 kts 200°
2026-05-05 19:35 51.98188 4.81263 19408 ft 371 kts 206°
2026-05-05 19:36 51.95892 4.79447 20144 ft 372 kts 206°
2026-05-05 19:36 51.93561 4.77616 20880 ft 373 kts 205°
2026-05-05 19:36 51.91214 4.75778 21581 ft 375 kts 206°
2026-05-05 19:36 51.88851 4.73934 22271 ft 378 kts 206°
2026-05-05 19:37 51.86480 4.72089 23007 ft 379 kts 206°
2026-05-05 19:37 51.84100 4.70236 23689 ft 380 kts 206°
2026-05-05 19:37 51.81707 4.68375 24230 ft 383 kts 206°
2026-05-05 19:37 51.79284 4.66493 24732 ft 387 kts 205°
2026-05-05 19:38 51.76842 4.64597 25254 ft 390 kts 205°
2026-05-05 19:38 51.74399 4.62700 25798 ft 391 kts 205°
2026-05-05 19:38 51.71936 4.60785 26289 ft 394 kts 205°
2026-05-05 19:38 51.69447 4.58854 26744 ft 398 kts 205°
2026-05-05 19:39 51.66941 4.56916 27245 ft 401 kts 205°
2026-05-05 19:39 51.64413 4.54967 27736 ft 403 kts 205°
2026-05-05 19:39 51.61872 4.53008 28217 ft 406 kts 205°
2026-05-05 19:39 51.59312 4.51032 28691 ft 409 kts 204°
2026-05-05 19:40 51.56734 4.49040 28870 ft 409 kts 204°
2026-05-05 19:40 51.54219 4.47100 28895 ft 391 kts 204°
2026-05-05 19:40 51.51801 4.45239 28890 ft 381 kts 204°
2026-05-05 19:41 51.47047 4.41599 28897 ft 379 kts 204°
2026-05-05 19:41 51.42201 4.37898 28896 ft 400 kts 204°
2026-05-05 19:41 51.39639 4.35948 28892 ft 415 kts 204°
2026-05-05 19:42 51.36991 4.33935 28893 ft 428 kts 204°
2026-05-05 19:42 51.34293 4.31890 28895 ft 439 kts 204°
2026-05-05 19:42 51.31497 4.29770 28891 ft 449 kts 204°
2026-05-05 19:43 51.25803 4.25450 28901 ft 455 kts 204°
2026-05-05 19:43 51.20073 4.21099 28892 ft 457 kts 204°
2026-05-05 19:44 51.14230 4.17142 28888 ft 455 kts 197°
2026-05-05 19:44 51.08233 4.13863 28892 ft 456 kts 197°
2026-05-05 19:45 51.02241 4.10578 28884 ft 455 kts 197°
2026-05-05 19:45 50.96243 4.07298 28885 ft 455 kts 197°
2026-05-05 19:46 50.90252 4.04055 28880 ft 454 kts 195°
2026-05-05 19:46 50.87200 4.03129 28876 ft 452 kts 183°
2026-05-05 19:46 50.84062 4.03202 28878 ft 451 kts 175°
2026-05-05 19:47 50.77796 4.03914 28874 ft 452 kts 174°
2026-05-05 19:47 50.71517 4.04606 28861 ft 452 kts 174°
2026-05-05 19:48 50.65232 4.05285 28862 ft 453 kts 174°
2026-05-05 19:48 50.58942 4.05976 28858 ft 453 kts 174°
2026-05-05 19:49 50.52653 4.06666 28858 ft 453 kts 174°
2026-05-05 19:49 50.46391 4.07345 28054 ft 445 kts 174°
2026-05-05 19:49 50.43305 4.07678 27783 ft 445 kts 174°
2026-05-05 19:50 50.40213 4.08015 27516 ft 446 kts 174°
2026-05-05 19:50 50.37115 4.08354 27252 ft 447 kts 174°
2026-05-05 19:50 50.34004 4.08697 26995 ft 448 kts 174°
2026-05-05 19:50 50.30897 4.09039 26735 ft 449 kts 174°
2026-05-05 19:51 50.27775 4.09379 26476 ft 450 kts 174°
2026-05-05 19:51 50.24636 4.09713 26215 ft 452 kts 175°
2026-05-05 19:51 50.21496 4.10013 25960 ft 453 kts 177°
2026-05-05 19:51 50.18358 4.09480 25701 ft 457 kts 193°
2026-05-05 19:52 50.15358 4.07802 25453 ft 460 kts 200°
2026-05-05 19:52 50.12394 4.05912 25205 ft 461 kts 201°
2026-05-05 19:52 50.09462 4.04024 24971 ft 461 kts 201°
2026-05-05 19:52 50.06512 4.02120 24253 ft 456 kts 201°
2026-05-05 19:53 50.03566 4.00219 22866 ft 461 kts 201°
2026-05-05 19:53 50.00592 3.98308 21946 ft 457 kts 201°
2026-05-05 19:53 49.97726 3.96469 21721 ft 436 kts 202°
2026-05-05 19:53 49.94950 3.94694 21012 ft 428 kts 201°
2026-05-05 19:54 49.92196 3.92941 20113 ft 428 kts 201°
2026-05-05 19:54 49.89428 3.91182 19706 ft 434 kts 201°
2026-05-05 19:54 49.86620 3.89397 19338 ft 439 kts 201°
2026-05-05 19:54 49.83791 3.87600 19056 ft 438 kts 201°
2026-05-05 19:55 49.80970 3.85817 18814 ft 436 kts 201°
2026-05-05 19:55 49.78168 3.84047 18574 ft 435 kts 201°
2026-05-05 19:55 49.75396 3.82293 18323 ft 420 kts 201°
2026-05-05 19:55 49.72783 3.80638 18078 ft 391 kts 202°
2026-05-05 19:56 49.70346 3.79099 17803 ft 366 kts 201°
2026-05-05 19:56 49.68077 3.77617 17542 ft 344 kts 207°
2026-05-05 19:56 49.66173 3.75531 17273 ft 331 kts 224°
2026-05-05 19:56 49.64780 3.72743 17011 ft 328 kts 237°
2026-05-05 19:57 49.63593 3.69769 16618 ft 322 kts 237°
2026-05-05 19:57 49.62823 3.67825 16166 ft 319 kts 238°
2026-05-05 19:57 49.61294 3.63954 15512 ft 318 kts 237°
2026-05-05 19:57 49.60144 3.61051 15110 ft 316 kts 237°
2026-05-05 19:58 49.59001 3.58171 14857 ft 315 kts 238°
2026-05-05 19:58 49.57842 3.55259 14825 ft 329 kts 237°
2026-05-05 19:58 49.56608 3.52169 14832 ft 344 kts 237°
2026-05-05 19:58 49.55345 3.49008 14824 ft 348 kts 238°
2026-05-05 19:59 49.54078 3.45830 14822 ft 348 kts 238°
2026-05-05 19:59 49.52807 3.42656 14824 ft 348 kts 237°
2026-05-05 19:59 49.51535 3.39483 14833 ft 348 kts 238°
2026-05-05 19:59 49.50260 3.36308 14833 ft 350 kts 238°
2026-05-05 20:00 49.48980 3.33125 14835 ft 349 kts 237°
2026-05-05 20:00 49.47710 3.29966 14835 ft 347 kts 238°
2026-05-05 20:00 49.46439 3.26810 14834 ft 347 kts 237°
2026-05-05 20:00 49.45188 3.23704 14833 ft 332 kts 238°
2026-05-05 20:01 49.44033 3.20719 14833 ft 320 kts 242°
2026-05-05 20:01 49.43048 3.17677 14653 ft 316 kts 243°
2026-05-05 20:01 49.42098 3.14651 14284 ft 313 kts 244°
2026-05-05 20:01 49.41165 3.11632 13899 ft 312 kts 244°
2026-05-05 20:02 49.40238 3.08623 13429 ft 312 kts 244°
2026-05-05 20:02 49.39309 3.05614 12840 ft 312 kts 244°
2026-05-05 20:02 49.38392 3.02651 12402 ft 311 kts 244°
2026-05-05 20:02 49.37462 2.99659 11960 ft 310 kts 244°
2026-05-05 20:03 49.36532 2.96676 11513 ft 310 kts 244°
2026-05-05 20:03 49.35602 2.93704 11164 ft 309 kts 244°
2026-05-05 20:03 49.34669 2.90723 10927 ft 310 kts 244°
2026-05-05 20:03 49.33736 2.87747 10822 ft 310 kts 244°
2026-05-05 20:04 49.32797 2.84762 10836 ft 311 kts 244°
2026-05-05 20:04 49.31855 2.81775 10846 ft 311 kts 244°
2026-05-05 20:04 49.30917 2.78793 10844 ft 311 kts 244°
2026-05-05 20:04 49.29978 2.75806 10848 ft 311 kts 244°
2026-05-05 20:05 49.29035 2.72812 10839 ft 312 kts 244°
2026-05-05 20:05 49.28048 2.69872 10637 ft 308 kts 242°
2026-05-05 20:05 49.27064 2.66999 10186 ft 299 kts 242°
2026-05-05 20:05 49.26115 2.64217 9640 ft 295 kts 243°
2026-05-05 20:06 49.25138 2.61431 9169 ft 296 kts 242°
2026-05-05 20:06 49.24153 2.58661 8718 ft 296 kts 242°
2026-05-05 20:06 49.23176 2.55914 8192 ft 294 kts 242°
2026-05-05 20:06 49.22201 2.53186 7810 ft 291 kts 242°
2026-05-05 20:07 49.21232 2.50483 7429 ft 289 kts 242°
2026-05-05 20:07 49.20263 2.47798 7049 ft 287 kts 242°
2026-05-05 20:07 49.19301 2.45135 6462 ft 285 kts 242°
2026-05-05 20:07 49.18346 2.42477 6056 ft 284 kts 242°
2026-05-05 20:08 49.17391 2.39847 5687 ft 282 kts 242°
2026-05-05 20:08 49.16455 2.37283 5534 ft 267 kts 242°
2026-05-05 20:08 49.15568 2.34887 5291 ft 254 kts 242°
2026-05-05 20:08 49.14700 2.32553 4844 ft 252 kts 242°
2026-05-05 20:09 49.13829 2.30233 4435 ft 252 kts 242°
2026-05-05 20:09 49.13249 2.28712 4325 ft 247 kts 242°
2026-05-05 20:09 49.12391 2.26456 4073 ft 247 kts 242°
2026-05-05 20:09 49.11523 2.24174 4059 ft 249 kts 242°
2026-05-05 20:10 49.10642 2.21892 4056 ft 249 kts 242°
2026-05-05 20:10 49.09485 2.18847 4053 ft 250 kts 242°
2026-05-05 20:10 49.08897 2.17289 4053 ft 249 kts 243°
2026-05-05 20:10 49.08023 2.15011 4057 ft 250 kts 242°
2026-05-05 20:11 49.07150 2.12716 4057 ft 250 kts 242°
2026-05-05 20:11 49.06287 2.10419 4075 ft 250 kts 242°
2026-05-05 20:11 49.05403 2.08162 4052 ft 247 kts 237°
2026-05-05 20:11 49.04084 2.06501 4059 ft 249 kts 203°
2026-05-05 20:12 49.02429 2.06151 4060 ft 245 kts 167°
2026-05-05 20:12 49.00951 2.07293 4064 ft 237 kts 131°
2026-05-05 20:12 49.00181 2.09416 4062 ft 228 kts 97°
2026-05-05 20:12 49.00176 2.11791 4063 ft 225 kts 83°
2026-05-05 20:13 49.00324 2.14160 4061 ft 225 kts 81°
2026-05-05 20:13 49.00468 2.16538 4059 ft 225 kts 81°
2026-05-05 20:13 49.00605 2.18911 4062 ft 224 kts 81°
2026-05-05 20:13 49.00739 2.21275 4064 ft 225 kts 82°
2026-05-05 20:14 49.00874 2.23661 4046 ft 227 kts 82°
2026-05-05 20:14 49.01011 2.26065 3844 ft 227 kts 82°
2026-05-05 20:14 49.01145 2.28453 3555 ft 228 kts 82°
2026-05-05 20:14 49.01280 2.30849 3261 ft 225 kts 82°
2026-05-05 20:15 49.01411 2.33192 2956 ft 217 kts 81°
2026-05-05 20:15 49.01532 2.35385 2660 ft 199 kts 81°
2026-05-05 20:15 49.01642 2.37399 2409 ft 184 kts 80°
2026-05-05 20:15 49.01746 2.39275 2196 ft 173 kts 80°
2026-05-05 20:16 49.01842 2.41026 1956 ft 158 kts 79°
2026-05-05 20:16 49.01926 2.42578 1753 ft 138 kts 78°
2026-05-05 20:16 49.02002 2.43966 1574 ft 127 kts 77°
2026-05-05 20:16 49.02075 2.45269 1395 ft 122 kts 78°
2026-05-05 20:17 49.02146 2.46551 1240 ft 121 kts 78°
2026-05-05 20:17 49.02219 2.47829 1048 ft 123 kts 81°
2026-05-05 20:17 49.02291 2.49124 834 ft 124 kts 80°
2026-05-05 20:17 49.02360 2.50426 681 ft 123 kts 80°
2026-05-05 20:18 49.02431 2.51728 492 ft 123 kts 80°
2026-05-05 20:18 49.02498 2.53015 357 ft 114 kts 82°
2026-05-05 20:18 49.02558 2.54037 355 ft 75 kts 85°
2026-05-05 20:18 49.02596 2.54745 359 ft 61 kts 85°
2026-05-05 20:19 49.02583 2.55268 360 ft 39 kts 115°
2026-05-05 20:19 49.02490 2.55551 358 ft 22 kts 116°
2026-05-05 20:19 49.02455 2.55611 355 ft 0 kts 152°
2026-05-05 20:21 49.02450 2.55612 356 ft 4 kts 163°
2026-05-05 20:21 49.02401 2.55617 355 ft 12 kts 171°
2026-05-05 20:22 49.02317 2.55630 355 ft 13 kts 177°
2026-05-05 20:22 49.02192 2.55640 357 ft 25 kts 175°
2026-05-05 20:22 49.01987 2.55667 355 ft 28 kts 175°
2026-05-05 20:22 49.01890 2.55585 359 ft 17 kts 262°
2026-05-05 20:23 49.01875 2.55363 355 ft 25 kts 265°
2026-05-05 20:23 49.01863 2.55107 358 ft 24 kts 265°
2026-05-05 20:23 49.01760 2.55002 355 ft 22 kts 173°
2026-05-05 20:23 49.01616 2.54971 355 ft 22 kts 180°
2026-05-05 20:24 49.01457 2.54991 357 ft 24 kts 173°
2026-05-05 20:24 49.01403 2.54972 359 ft 3 kts 259°
2026-05-05 20:24 49.01355 2.54936 355 ft 14 kts 170°
2026-05-05 20:24 49.01211 2.54997 363 ft 29 kts 163°
2026-05-05 20:25 49.00975 2.55101 359 ft 42 kts 164°
2026-05-05 20:25 49.00683 2.55240 357 ft 24 kts 145°